Simultaneous Nadir Overpasses (SNOs) Predictions

Prediction of SNOs over PacNW region [( 10.00, 139.50) to ( 22.70, 165.60)] between NOAA-19 and NPP Satellites:

Table of predicted SNOs over PacNW region for the next 30.0 days since TLE Epoch: 6/1/2012
Index Date (NOAA-19) Time (NOAA-19) NOAA-19 Lat,Lon Date (NPP) Time (NPP) NPP Lat,Lon Distance(km) Time Diff (sec)
1 06/08/2012 16:02:03 22.59, 146.31 06/08/2012 16:05:39 26.44, 143.80 497.75 216
2 06/09/2012 03:18:05 20.60, 150.26 06/09/2012 03:18:40 20.12, 148.00 241.55 35
3 06/09/2012 15:54:52 10.06, 145.98 06/09/2012 15:51:15 10.10, 144.61 150.20 217
4 06/21/2012 02:49:11 14.97, 158.46 06/21/2012 02:51:23 14.33, 155.77 298.82 132
5 06/21/2012 15:26:05 15.43, 154.07 06/21/2012 15:24:00 15.79, 152.32 192.21 125




NCC Satellite Simultaneous Nadir Overpasses (SNOs) Prediction Service
